Caro, MI

7:24 AM EDT on May 25, 2017 (GMT -0400)
Caro

Weather History for KCFS - August, 2014

Change the Weather History Date:

Wednesday, August 27, 2014

  Actual Average (KMBS) Record (KMBS)
Temperature  
Mean Temperature 64 °F -  
Max Temperature 71 °F 77 °F 89 °F (1998)
Min Temperature 56 °F 54 °F 48 °F (2010)
Degree Days  
Heating Degree Days 2    
Growing Degree Days 14 (Base 50)    
Moisture  
Dew Point 59 °F    
Average Humidity 81    
Maximum Humidity 97    
Minimum Humidity 63    
Precipitation  
Precipitation 0.00 in - - ()
Sea Level Pressure  
Sea Level Pressure 30.12 in    
Wind  
Wind Speed 3 mph (North)    
Max Wind Speed 10 mph    
Max Gust Speed -    
Visibility 10 miles    
Events Rain    
Averages and records for this station are not official NWS values.
T = Trace of Precipitation, MM = Missing Value Source: NWS Daily Summary

Daily Weather History Graph

Daily Weather History Graph

Search for Another Location

Airport or City:

Trip Planner

Search our weather history database for the weather conditions in past years. The results will help you decide how hot, cold, wet, or windy it might be!

Date:

Astronomy

Aug. 27, 2014 Rise Set
Actual Time 6:52 AM EDT 8:17 PM EDT
Civil Twilight 6:22 AM EDT 8:47 PM EDT
Nautical Twilight 5:46 AM EDT 9:23 PM EDT
Astronomical Twilight 5:07 AM EDT 10:01 PM EDT
Moon 8:52 AM EDT (8/27) 9:03 PM EDT (8/27)
Length of Visible Light 14h 25m
Length of Day
13h 25m
Waxing Crescent, 4% of the Moon is Illuminated
Aug 27
Waxing Crescent
Sep 2
First Quarter
Sep 8
Full
Sep 15
Last Quarter
Sep 24
New

Hourly Weather History & Observations

Time (EDT) Temp. Dew Point Humidity Pressure Visibility Wind Dir Wind Speed Gust Speed Precip Events Conditions
12:15 AM 64.9 °F 61.0 °F 87% 30.08 in 10.0 mi NE 3.5 mph - N/A   Scattered Clouds
12:34 AM 64.4 °F 61.7 °F 91% 30.09 in 10.0 mi Calm Calm - N/A   Mostly Cloudy
1:15 AM 64.9 °F 61.0 °F 87% 30.09 in 10.0 mi ENE 3.5 mph - N/A   Overcast
1:35 AM 64.9 °F 60.8 °F 86% 30.10 in 10.0 mi NE 3.5 mph - N/A   Overcast
1:55 AM 64.9 °F 60.6 °F 86% 30.10 in 10.0 mi NNE 3.5 mph - N/A   Overcast
2:15 AM 64.8 °F 60.6 °F 86% 30.10 in 10.0 mi Calm Calm - N/A   Overcast
2:35 AM 64.8 °F 60.6 °F 86% 30.10 in 10.0 mi NE 5.8 mph - N/A   Overcast
2:55 AM 64.6 °F 60.3 °F 86% 30.10 in 10.0 mi NE 3.5 mph - N/A   Overcast
3:15 AM 64.6 °F 61.0 °F 88% 30.10 in 10.0 mi Calm Calm - N/A   Overcast
3:34 AM 64.4 °F 61.0 °F 89% 30.11 in 10.0 mi Calm Calm - N/A   Overcast
3:55 AM 64.0 °F 60.1 °F 87% 30.10 in 10.0 mi ENE 5.8 mph - N/A   Overcast
4:14 AM 63.7 °F 59.0 °F 85% 30.10 in 10.0 mi NE 4.6 mph - N/A   Overcast
4:34 AM 63.5 °F 59.5 °F 87% 30.10 in 10.0 mi ENE 3.5 mph - N/A   Overcast
4:54 AM 62.8 °F 59.4 °F 89% 30.11 in 10.0 mi Calm Calm - N/A   Overcast
5:14 AM 61.9 °F 59.0 °F 90% 30.12 in 10.0 mi Calm Calm - N/A   Mostly Cloudy
5:34 AM 60.6 °F 58.3 °F 92% 30.11 in 10.0 mi Calm Calm - N/A   Scattered Clouds
5:55 AM 60.3 °F 57.9 °F 92% 30.12 in 10.0 mi Calm Calm - N/A   Clear
6:15 AM 58.3 °F 57.2 °F 96% 30.12 in 10.0 mi Calm Calm - N/A   Clear
6:34 AM 57.2 °F 56.5 °F 97% 30.12 in 10.0 mi Calm Calm - N/A   Clear
6:55 AM 57.2 °F 56.3 °F 97% 30.12 in 10.0 mi Calm Calm - N/A   Clear
7:15 AM 56.5 °F 55.8 °F 97% 30.13 in 10.0 mi Calm Calm - N/A   Clear
7:35 AM 57.6 °F 56.5 °F 96% 30.13 in 10.0 mi Calm Calm - N/A   Scattered Clouds
7:55 AM 61.0 °F 58.3 °F 91% 30.14 in 10.0 mi Calm Calm - N/A   Mostly Cloudy
8:15 AM 62.4 °F 58.5 °F 87% 30.15 in 10.0 mi Calm Calm - N/A   Scattered Clouds
8:35 AM 61.7 °F 58.3 °F 89% 30.15 in 10.0 mi Calm Calm - N/A   Clear
8:55 AM 63.5 °F 57.9 °F 82% 30.16 in 10.0 mi North 4.6 mph - N/A   Scattered Clouds
9:14 AM 64.0 °F 59.2 °F 84% 30.16 in 10.0 mi North 6.9 mph - N/A   Scattered Clouds
9:34 AM 62.6 °F 58.5 °F 86% 30.15 in 10.0 mi North 4.6 mph - N/A   Scattered Clouds
9:55 AM 63.3 °F 57.9 °F 83% 30.16 in 10.0 mi Calm Calm - N/A   Scattered Clouds
10:15 AM 63.3 °F 57.7 °F 82% 30.15 in 10.0 mi NE 3.5 mph - N/A Rain Light Rain
10:35 AM 64.0 °F 58.3 °F 82% 30.14 in 10.0 mi NE 3.5 mph - N/A   Scattered Clouds
11:15 AM 66.0 °F 57.7 °F 75% 30.14 in 10.0 mi Calm Calm - N/A   Scattered Clouds
11:34 AM 66.9 °F 58.1 °F 73% 30.14 in 10.0 mi Calm Calm - N/A   Clear
11:54 AM 67.8 °F 59.0 °F 73% 30.15 in 10.0 mi Calm Calm - N/A   Clear
12:15 PM 69.6 °F 60.1 °F 72% 30.15 in 10.0 mi NW 4.6 mph - N/A   Clear
12:34 PM 69.6 °F 60.1 °F 72% 30.15 in 10.0 mi NNW 6.9 mph - N/A   Clear
12:54 PM 69.6 °F 60.3 °F 72% 30.15 in 10.0 mi North 6.9 mph - N/A   Scattered Clouds
1:15 PM 70.5 °F 60.6 °F 71% 30.14 in 10.0 mi NW 9.2 mph - N/A   Scattered Clouds
1:35 PM 69.8 °F 59.4 °F 69% 30.14 in 10.0 mi NNW 6.9 mph - N/A   Scattered Clouds
1:55 PM 69.6 °F 59.4 °F 70% 30.14 in 10.0 mi North 6.9 mph - N/A   Scattered Clouds
2:15 PM 70.5 °F 58.8 °F 66% 30.14 in 10.0 mi WNW 4.6 mph - N/A   Scattered Clouds
2:34 PM 71.2 °F 59.4 °F 66% 30.14 in 10.0 mi NW 5.8 mph - N/A   Clear
2:55 PM 71.8 °F 59.9 °F 66% 30.13 in 10.0 mi NW 10.4 mph - N/A   Scattered Clouds
3:15 PM 71.2 °F 59.2 °F 66% 30.12 in 10.0 mi NNW 8.1 mph - N/A   Scattered Clouds
3:35 PM 71.1 °F 58.6 °F 65% 30.12 in 10.0 mi NW 8.1 mph - N/A   Clear
3:54 PM 71.6 °F 59.4 °F 65% 30.12 in 10.0 mi NNW 10.4 mph - N/A   Clear
4:14 PM 71.2 °F 59.2 °F 66% 30.12 in 10.0 mi NNW 8.1 mph - N/A   Clear
4:35 PM 71.8 °F 59.2 °F 64% 30.11 in 10.0 mi NNW 9.2 mph - N/A   Scattered Clouds
4:55 PM 71.8 °F 59.2 °F 64% 30.11 in 10.0 mi NW 6.9 mph - N/A   Scattered Clouds
5:15 PM 71.8 °F 59.7 °F 66% 30.11 in 10.0 mi NNW 9.2 mph - N/A   Clear
5:35 PM 71.2 °F 58.5 °F 64% 30.11 in 10.0 mi NW 8.1 mph - N/A   Clear
5:54 PM 71.4 °F 58.1 °F 63% 30.11 in 10.0 mi NW 6.9 mph - N/A   Clear
6:15 PM 70.2 °F 58.1 °F 65% 30.12 in 10.0 mi NNW 5.8 mph - N/A   Scattered Clouds
6:35 PM 68.9 °F 58.6 °F 70% 30.11 in 10.0 mi NNW 3.5 mph - N/A   Mostly Cloudy
6:54 PM 68.0 °F 59.4 °F 74% 30.11 in 10.0 mi North 5.8 mph - N/A   Mostly Cloudy
7:14 PM 68.2 °F 59.0 °F 72% 30.10 in 10.0 mi North 3.5 mph - N/A   Overcast
7:34 PM 67.1 °F 58.8 °F 75% 30.10 in 10.0 mi Calm Calm - N/A   Scattered Clouds
7:54 PM 66.0 °F 60.1 °F 81% 30.10 in 10.0 mi Calm Calm - N/A   Clear
8:15 PM 63.7 °F 59.5 °F 86% 30.10 in 10.0 mi Calm Calm - N/A   Clear
8:34 PM 61.3 °F 58.6 °F 91% 30.10 in 7.0 mi Calm Calm - N/A   Clear
8:55 PM 60.8 °F 58.1 °F 91% 30.10 in 10.0 mi Calm Calm - N/A   Clear
9:15 PM 59.7 °F 57.7 °F 93% 30.10 in 10.0 mi Calm Calm - N/A   Clear
9:35 PM 59.5 °F 57.0 °F 91% 30.10 in 10.0 mi NNE 4.6 mph - N/A   Scattered Clouds
9:55 PM 62.6 °F 55.8 °F 78% 30.12 in 10.0 mi NE 5.8 mph - N/A   Overcast
10:15 PM 62.2 °F 55.4 °F 78% 30.12 in 10.0 mi NE 5.8 mph - N/A   Overcast
10:35 PM 61.7 °F 55.4 °F 80% 30.12 in 10.0 mi NE 5.8 mph - N/A   Overcast
10:55 PM 60.8 °F 55.0 °F 81% 30.13 in 10.0 mi ENE 3.5 mph - N/A   Mostly Cloudy
11:14 PM 59.7 °F 54.9 °F 84% 30.14 in 10.0 mi NE 3.5 mph - N/A   Scattered Clouds
11:35 PM 58.6 °F 54.7 °F 87% 30.15 in 10.0 mi Calm Calm - N/A   Scattered Clouds
11:55 PM 57.6 °F 55.6 °F 93% 30.15 in 10.0 mi Calm Calm - N/A   Mostly Cloudy